Location: Beang
(6.6177°N, 10.9863°W)
Time: 00:36:02
(UTC+00:00)

Cosmos 2237 Rocket - Pass Details

Date: 07 June 2020
Orbit: 834 x 851 km, 71.0° (Epoch: 13 July)

Event Time Altitude Azimuth Distance (km) Brightness Sun altitude
Exits shadow 05:16:19 20° 281° (W) 1,849 3.5 -17.0°
Maximum altitude 05:16:48 20° 288° (WNW) 1,839 3.6 -16.9°
Drops below altitude 10° 05:20:50 10° 334° (NNW) 2,453 4.6 -16.0°
Sets 05:23:56 0° 350° (N) 3,390 5.6 -15.3°
